VJC366 VVTS-VVDN

Flight info

Callsign VJC366
Flight time 1h 3m
Altitude 35000
Route PATMA5P PATMA Q2 SADAS/K0846F290 Q7 MUMGA Q1 SADIN SADIN2K
Aircraft A21N/M-SDE3FGHIRWY/LB1

Departure

Time 2026-04-20 04:46
Airport Tan Son Nhat International Airport (VVTS)

Arrival

Time 2026-04-20 05:49
Airport Da Nang International Airport (VVDN)
Time Latitude Longitude Altitude Speed Heading
2026-04-20 04:15 10.81260 106.66116 35 ft 0 kts 95°
2026-04-20 04:28 10.81260 106.66115 35 ft 0 kts 95°
2026-04-20 04:28 10.81261 106.66111 35 ft 0 kts 95°
2026-04-20 04:29 10.81261 106.66106 35 ft 0 kts 95°
2026-04-20 04:30 10.81261 106.66105 35 ft 1 kts 96°
2026-04-20 04:30 10.81263 106.66090 35 ft 1 kts 95°
2026-04-20 04:30 10.81263 106.66080 34 ft 2 kts 91°
2026-04-20 04:30 10.81262 106.66065 34 ft 2 kts 76°
2026-04-20 04:31 10.81257 106.66051 34 ft 2 kts 65°
2026-04-20 04:31 10.81250 106.66037 34 ft 2 kts 53°
2026-04-20 04:31 10.81240 106.66026 34 ft 2 kts 42°
2026-04-20 04:31 10.81228 106.66016 34 ft 2 kts 30°
2026-04-20 04:32 10.81214 106.66009 34 ft 2 kts 19°
2026-04-20 04:32 10.81200 106.66007 34 ft 1 kts
2026-04-20 04:32 10.81194 106.66006 34 ft 1 kts
2026-04-20 04:32 10.81192 106.66006 34 ft 0 kts
2026-04-20 04:35 10.81204 106.66008 34 ft 4 kts 11°
2026-04-20 04:36 10.81358 106.66024 32 ft 15 kts
2026-04-20 04:36 10.81428 106.66031 30 ft 5 kts
2026-04-20 04:36 10.81477 106.66035 29 ft 8 kts
2026-04-20 04:37 10.81539 106.66042 29 ft 9 kts
2026-04-20 04:37 10.81563 106.66043 29 ft 3 kts
2026-04-20 04:37 10.81591 106.66045 29 ft 4 kts
2026-04-20 04:37 10.81631 106.66049 29 ft 7 kts
2026-04-20 04:38 10.81694 106.66054 28 ft 10 kts
2026-04-20 04:38 10.81774 106.66062 28 ft 12 kts
2026-04-20 04:38 10.81861 106.66084 28 ft 11 kts 52°
2026-04-20 04:38 10.81892 106.66151 28 ft 7 kts 70°
2026-04-20 04:39 10.81911 106.66203 28 ft 8 kts 70°
2026-04-20 04:39 10.81927 106.66245 28 ft 6 kts 69°
2026-04-20 04:39 10.81944 106.66289 28 ft 7 kts 69°
2026-04-20 04:39 10.81965 106.66344 28 ft 9 kts 69°
2026-04-20 04:40 10.81990 106.66412 28 ft 10 kts 69°
2026-04-20 04:40 10.82019 106.66489 29 ft 12 kts 69°
2026-04-20 04:40 10.82050 106.66572 29 ft 12 kts 69°
2026-04-20 04:40 10.82083 106.66660 30 ft 13 kts 70°
2026-04-20 04:41 10.82116 106.66748 32 ft 13 kts 69°
2026-04-20 04:41 10.82152 106.66840 32 ft 14 kts 69°
2026-04-20 04:41 10.82187 106.66934 33 ft 14 kts 69°
2026-04-20 04:41 10.82239 106.67007 35 ft 13 kts
2026-04-20 04:42 10.82272 106.67002 35 ft 0 kts 338°
2026-04-20 04:42 10.82273 106.67001 35 ft 0 kts 338°
2026-04-20 04:42 10.82276 106.67000 35 ft 1 kts 338°
2026-04-20 04:42 10.82293 106.66991 35 ft 4 kts 324°
2026-04-20 04:43 10.82325 106.66964 34 ft 7 kts 321°
2026-04-20 04:43 10.82364 106.66933 34 ft 7 kts 267°
2026-04-20 04:43 10.82349 106.66891 33 ft 0 kts 248°
2026-04-20 04:45 10.82347 106.66885 33 ft 4 kts 248°
2026-04-20 04:45 10.82242 106.66613 32 ft 82 kts 248°
2026-04-20 04:45 10.81949 106.65831 29 ft 151 kts 249°
2026-04-20 04:46 10.81535 106.64693 319 ft 179 kts 248°
2026-04-20 04:46 10.81103 106.63507 949 ft 183 kts 247°
2026-04-20 04:46 10.80646 106.62312 1659 ft 185 kts 247°
2026-04-20 04:46 10.80172 106.61078 2244 ft 196 kts 247°
2026-04-20 04:47 10.79661 106.59734 2692 ft 210 kts 248°
2026-04-20 04:47 10.79279 106.58249 2960 ft 226 kts 270°
2026-04-20 04:47 10.79821 106.56731 3203 ft 240 kts 312°
2026-04-20 04:47 10.81253 106.55840 3441 ft 252 kts 351°
2026-04-20 04:48 10.83046 106.55924 3794 ft 263 kts 13°
2026-04-20 04:48 10.84883 106.56226 4367 ft 270 kts
2026-04-20 04:48 10.86754 106.56436 5068 ft 272 kts
2026-04-20 04:48 10.88640 106.56631 5789 ft 273 kts
2026-04-20 04:49 10.90529 106.56825 6510 ft 274 kts
2026-04-20 04:49 10.92437 106.57021 7173 ft 276 kts
2026-04-20 04:49 10.94339 106.57217 7791 ft 279 kts
2026-04-20 04:49 10.96284 106.57414 8407 ft 282 kts
2026-04-20 04:50 10.98224 106.57768 8971 ft 283 kts 23°
2026-04-20 04:50 10.99844 106.58854 9533 ft 283 kts 47°
2026-04-20 04:50 11.01098 106.60411 10121 ft 284 kts 54°
2026-04-20 04:50 11.02287 106.62071 10456 ft 296 kts 54°
2026-04-20 04:51 11.03525 106.63786 10711 ft 310 kts 53°
2026-04-20 04:51 11.04862 106.65593 11012 ft 322 kts 53°
2026-04-20 04:51 11.05849 106.66906 11365 ft 325 kts 53°
2026-04-20 04:51 11.07228 106.68725 11897 ft 328 kts 52°
2026-04-20 04:52 11.08639 106.70575 12452 ft 330 kts 52°
2026-04-20 04:52 11.10046 106.72414 12962 ft 333 kts 52°
2026-04-20 04:52 11.11486 106.74296 13453 ft 336 kts 52°
2026-04-20 04:52 11.12930 106.76180 13951 ft 338 kts 52°
2026-04-20 04:53 11.14381 106.78072 14449 ft 340 kts 52°
2026-04-20 04:53 11.15836 106.79971 14913 ft 343 kts 52°
2026-04-20 04:53 11.17303 106.81886 15382 ft 346 kts 52°
2026-04-20 04:53 11.18798 106.83838 15836 ft 349 kts 52°
2026-04-20 04:54 11.20301 106.85800 16290 ft 351 kts 52°
2026-04-20 04:54 11.21806 106.87766 16730 ft 353 kts 52°
2026-04-20 04:54 11.23325 106.89750 17165 ft 356 kts 52°
2026-04-20 04:54 11.24841 106.91732 17583 ft 358 kts 52°
2026-04-20 04:55 11.26390 106.93756 17998 ft 360 kts 52°
2026-04-20 04:55 11.27925 106.95763 18395 ft 363 kts 52°
2026-04-20 04:55 11.29487 106.97807 18787 ft 365 kts 52°
2026-04-20 04:55 11.31039 106.99837 19166 ft 367 kts 52°
2026-04-20 04:56 11.32623 107.01909 19549 ft 369 kts 52°
2026-04-20 04:56 11.34236 107.03979 19905 ft 372 kts 49°
2026-04-20 04:56 11.36002 107.05905 20254 ft 374 kts 44°
2026-04-20 04:56 11.37950 107.07655 20597 ft 376 kts 38°
2026-04-20 04:57 11.40033 107.09280 20942 ft 378 kts 37°
2026-04-20 04:57 11.42161 107.10902 21300 ft 379 kts 37°
2026-04-20 04:57 11.44285 107.12514 21627 ft 381 kts 37°
2026-04-20 04:57 11.46403 107.14125 21954 ft 382 kts 37°
2026-04-20 04:58 11.48536 107.15750 22267 ft 384 kts 37°
2026-04-20 04:58 11.50711 107.17410 22586 ft 386 kts 37°
2026-04-20 04:58 11.52857 107.19050 22896 ft 388 kts 37°
2026-04-20 04:58 11.55037 107.20715 23214 ft 390 kts 37°
2026-04-20 04:59 11.57215 107.22380 23537 ft 391 kts 37°
2026-04-20 04:59 11.59421 107.24065 23838 ft 392 kts 36°
2026-04-20 04:59 11.61610 107.25740 24129 ft 394 kts 36°
2026-04-20 04:59 11.63800 107.27414 24421 ft 396 kts 36°
2026-04-20 05:00 11.66005 107.29102 24704 ft 397 kts 36°
2026-04-20 05:00 11.68244 107.30814 24997 ft 399 kts 36°
2026-04-20 05:00 11.70456 107.32506 25277 ft 400 kts 36°
2026-04-20 05:00 11.72682 107.34210 25551 ft 401 kts 36°
2026-04-20 05:01 11.74952 107.35950 25827 ft 403 kts 36°
2026-04-20 05:01 11.77194 107.37667 26091 ft 404 kts 36°
2026-04-20 05:01 11.79444 107.39391 26357 ft 406 kts 36°
2026-04-20 05:01 11.81704 107.41122 26609 ft 407 kts 36°
2026-04-20 05:02 11.83984 107.42868 26851 ft 409 kts 36°
2026-04-20 05:02 11.86256 107.44610 27103 ft 410 kts 36°
2026-04-20 05:02 11.88544 107.46365 27362 ft 411 kts 36°
2026-04-20 05:02 11.90865 107.48145 27621 ft 412 kts 36°
2026-04-20 05:03 11.93145 107.49892 27847 ft 414 kts 36°
2026-04-20 05:03 11.95451 107.51662 28077 ft 415 kts 35°
2026-04-20 05:03 11.97785 107.53455 28320 ft 417 kts 35°
2026-04-20 05:03 12.00121 107.55247 28553 ft 418 kts 35°
2026-04-20 05:04 12.02432 107.57021 28784 ft 420 kts 35°
2026-04-20 05:04 12.04784 107.58825 29004 ft 422 kts 35°
2026-04-20 05:04 12.07143 107.60636 29221 ft 424 kts 35°
2026-04-20 05:04 12.09507 107.62453 29447 ft 426 kts 36°
2026-04-20 05:05 12.11882 107.64277 29674 ft 427 kts 36°
2026-04-20 05:05 12.14298 107.66134 29901 ft 429 kts 36°
2026-04-20 05:05 12.16697 107.67979 30125 ft 431 kts 36°
2026-04-20 05:05 12.19088 107.69818 30349 ft 433 kts 36°
2026-04-20 05:06 12.21486 107.71663 30584 ft 434 kts 36°
2026-04-20 05:06 12.23919 107.73535 30806 ft 436 kts 36°
2026-04-20 05:06 12.26367 107.75417 31023 ft 438 kts 35°
2026-04-20 05:06 12.28895 107.77150 31241 ft 438 kts 30°
2026-04-20 05:07 12.31596 107.78599 31451 ft 439 kts 23°
2026-04-20 05:07 12.34433 107.79744 31649 ft 440 kts 17°
2026-04-20 05:07 12.37395 107.80573 31836 ft 441 kts 11°
2026-04-20 05:07 12.40429 107.81071 32029 ft 442 kts
2026-04-20 05:08 12.43543 107.81255 32290 ft 442 kts
2026-04-20 05:08 12.46587 107.81328 32605 ft 441 kts
2026-04-20 05:08 12.49670 107.81382 32949 ft 440 kts
2026-04-20 05:08 12.52787 107.81435 33279 ft 439 kts
2026-04-20 05:09 12.55862 107.81488 33553 ft 439 kts
2026-04-20 05:09 12.58942 107.81544 33782 ft 441 kts
2026-04-20 05:09 12.61998 107.81602 34001 ft 442 kts
2026-04-20 05:09 12.65088 107.81662 34238 ft 442 kts
2026-04-20 05:10 12.68185 107.81722 34466 ft 443 kts
2026-04-20 05:10 12.71284 107.81782 34675 ft 444 kts
2026-04-20 05:10 12.74404 107.81844 34875 ft 445 kts
2026-04-20 05:11 12.80647 107.81966 34923 ft 447 kts
2026-04-20 05:11 12.86893 107.82089 34923 ft 446 kts
2026-04-20 05:12 12.93132 107.82211 34918 ft 446 kts
2026-04-20 05:12 12.99406 107.82334 34914 ft 446 kts
2026-04-20 05:13 13.05644 107.82457 34913 ft 447 kts
2026-04-20 05:13 13.11919 107.82580 34915 ft 447 kts
2026-04-20 05:14 13.18172 107.82702 34914 ft 446 kts
2026-04-20 05:14 13.24427 107.82899 34913 ft 446 kts
2026-04-20 05:15 13.30608 107.83775 34918 ft 447 kts 10°
2026-04-20 05:15 13.36666 107.85468 34924 ft 448 kts 18°
2026-04-20 05:16 13.42447 107.87915 34928 ft 449 kts 23°
2026-04-20 05:16 13.48142 107.90627 34929 ft 449 kts 24°
2026-04-20 05:17 13.53839 107.93349 34936 ft 448 kts 23°
2026-04-20 05:17 13.59520 107.96058 34947 ft 448 kts 23°
2026-04-20 05:18 13.65225 107.98776 34961 ft 448 kts 23°
2026-04-20 05:18 13.70878 108.01472 34969 ft 448 kts 23°
2026-04-20 05:19 13.76567 108.04187 34975 ft 447 kts 23°
2026-04-20 05:19 13.82239 108.06895 34979 ft 447 kts 23°
2026-04-20 05:20 13.87879 108.09589 34985 ft 446 kts 23°
2026-04-20 05:20 13.93560 108.12197 34990 ft 445 kts 20°
2026-04-20 05:21 13.99491 108.14150 34991 ft 444 kts 13°
2026-04-20 05:21 14.05600 108.15297 34999 ft 442 kts
2026-04-20 05:22 14.11817 108.15668 35003 ft 442 kts
2026-04-20 05:22 14.17997 108.15790 35012 ft 441 kts 360°
2026-04-20 05:23 14.24139 108.15910 35018 ft 441 kts 360°
2026-04-20 05:23 14.30334 108.16042 35020 ft 441 kts 360°
2026-04-20 05:24 14.36484 108.16180 35021 ft 441 kts
2026-04-20 05:24 14.42665 108.16318 35020 ft 441 kts
2026-04-20 05:24 14.45722 108.16386 34823 ft 442 kts 360°
2026-04-20 05:25 14.48806 108.16454 34323 ft 439 kts
2026-04-20 05:25 14.51831 108.16520 33791 ft 435 kts
2026-04-20 05:25 14.54850 108.16585 33176 ft 433 kts
2026-04-20 05:25 14.57887 108.16653 32518 ft 432 kts
2026-04-20 05:26 14.60915 108.16720 31863 ft 433 kts
2026-04-20 05:26 14.63916 108.16786 31349 ft 430 kts
2026-04-20 05:26 14.66902 108.16853 30894 ft 426 kts 360°
2026-04-20 05:26 14.69836 108.16917 30439 ft 422 kts 360°
2026-04-20 05:27 14.72753 108.16981 29975 ft 419 kts 360°
2026-04-20 05:27 14.75686 108.17046 29504 ft 416 kts 360°
2026-04-20 05:27 14.78582 108.17109 29034 ft 414 kts 360°
2026-04-20 05:27 14.81462 108.17172 28573 ft 411 kts 360°
2026-04-20 05:28 14.84328 108.17234 28109 ft 409 kts 360°
2026-04-20 05:28 14.87177 108.17297 27668 ft 406 kts 360°
2026-04-20 05:28 14.90024 108.17358 27236 ft 403 kts 360°
2026-04-20 05:28 14.92804 108.17419 26816 ft 400 kts
2026-04-20 05:29 14.95600 108.17481 26381 ft 397 kts
2026-04-20 05:29 14.98364 108.17541 25947 ft 394 kts
2026-04-20 05:29 15.01124 108.17601 25507 ft 392 kts
2026-04-20 05:29 15.03843 108.17662 25084 ft 389 kts
2026-04-20 05:30 15.06523 108.17585 24651 ft 386 kts 353°
2026-04-20 05:30 15.09171 108.17145 24208 ft 383 kts 346°
2026-04-20 05:30 15.11774 108.16344 23750 ft 380 kts 340°
2026-04-20 05:30 15.14269 108.15402 23296 ft 379 kts 339°
2026-04-20 05:31 15.16748 108.14437 22843 ft 377 kts 338°
2026-04-20 05:31 15.19219 108.13474 22389 ft 375 kts 339°
2026-04-20 05:31 15.21700 108.12511 21957 ft 373 kts 339°
2026-04-20 05:31 15.24136 108.11568 21509 ft 372 kts 339°
2026-04-20 05:32 15.26558 108.10633 21041 ft 371 kts 339°
2026-04-20 05:32 15.28995 108.09692 20597 ft 370 kts 339°
2026-04-20 05:32 15.31423 108.08755 20159 ft 369 kts 339°
2026-04-20 05:32 15.33816 108.07832 19705 ft 368 kts 339°
2026-04-20 05:33 15.36237 108.06898 19250 ft 366 kts 339°
2026-04-20 05:33 15.38630 108.05976 18803 ft 365 kts 339°
2026-04-20 05:33 15.41037 108.05140 18353 ft 364 kts 343°
2026-04-20 05:33 15.43497 108.04518 17898 ft 363 kts 348°
2026-04-20 05:34 15.45982 108.04097 17473 ft 361 kts 352°
2026-04-20 05:34 15.48481 108.03730 17018 ft 359 kts 352°
2026-04-20 05:34 15.53414 108.03022 16170 ft 355 kts 352°
2026-04-20 05:35 15.55880 108.02663 15729 ft 354 kts 352°
2026-04-20 05:35 15.58329 108.02308 15267 ft 353 kts 352°
2026-04-20 05:35 15.60777 108.01953 14837 ft 351 kts 352°
2026-04-20 05:35 15.63175 108.01605 14536 ft 344 kts 353°
2026-04-20 05:36 15.65529 108.01265 14417 ft 332 kts 353°
2026-04-20 05:36 15.67802 108.00936 14280 ft 320 kts 353°
2026-04-20 05:36 15.69964 108.00623 14153 ft 310 kts 352°
2026-04-20 05:36 15.72098 108.00378 13965 ft 300 kts
2026-04-20 05:37 15.74052 108.00923 13766 ft 288 kts 34°
2026-04-20 05:37 15.75398 108.02399 13450 ft 283 kts 65°
2026-04-20 05:37 15.75890 108.04346 13087 ft 279 kts 85°
2026-04-20 05:37 15.76073 108.06346 12760 ft 278 kts 85°
2026-04-20 05:38 15.76273 108.08357 12407 ft 277 kts 88°
2026-04-20 05:38 15.75970 108.10299 11982 ft 276 kts 117°
2026-04-20 05:38 15.74740 108.11784 11614 ft 274 kts 146°
2026-04-20 05:38 15.72982 108.12486 11277 ft 272 kts 171°
2026-04-20 05:39 15.71094 108.12721 10957 ft 271 kts 173°
2026-04-20 05:39 15.69231 108.12955 10619 ft 270 kts 172°
2026-04-20 05:39 15.67370 108.13205 10296 ft 268 kts 172°
2026-04-20 05:39 15.65517 108.13465 9968 ft 267 kts 172°
2026-04-20 05:40 15.63676 108.13730 9625 ft 266 kts 171°
2026-04-20 05:40 15.61919 108.14336 9226 ft 265 kts 143°
2026-04-20 05:40 15.60788 108.15789 8888 ft 263 kts 111°
2026-04-20 05:40 15.60527 108.17664 8538 ft 263 kts 84°
2026-04-20 05:41 15.60820 108.19517 8236 ft 262 kts 81°
2026-04-20 05:41 15.61109 108.21362 7909 ft 261 kts 82°
2026-04-20 05:41 15.61391 108.23224 7586 ft 261 kts 78°
2026-04-20 05:41 15.62152 108.24913 7206 ft 260 kts 45°
2026-04-20 05:42 15.63674 108.25841 6889 ft 257 kts 11°
2026-04-20 05:42 15.65443 108.25843 6571 ft 254 kts 348°
2026-04-20 05:42 15.67189 108.25516 6257 ft 254 kts 348°
2026-04-20 05:42 15.68940 108.25157 5937 ft 252 kts 347°
2026-04-20 05:43 15.70649 108.24812 5706 ft 250 kts 348°
2026-04-20 05:43 15.72375 108.24496 5420 ft 251 kts 350°
2026-04-20 05:43 15.74112 108.24209 5138 ft 250 kts 351°
2026-04-20 05:43 15.75830 108.23946 4866 ft 249 kts 352°
2026-04-20 05:44 15.77565 108.23692 4592 ft 250 kts 352°
2026-04-20 05:44 15.79263 108.23450 4391 ft 244 kts 353°
2026-04-20 05:44 15.80942 108.23212 4101 ft 243 kts 353°
2026-04-20 05:44 15.82618 108.22975 3800 ft 241 kts 353°
2026-04-20 05:45 15.84280 108.22739 3503 ft 239 kts 354°
2026-04-20 05:45 15.85923 108.22504 3194 ft 233 kts 354°
2026-04-20 05:45 15.87511 108.22276 2922 ft 229 kts 354°
2026-04-20 05:45 15.89073 108.22050 2733 ft 219 kts 354°
2026-04-20 05:46 15.90585 108.21832 2423 ft 215 kts 355°
2026-04-20 05:46 15.92041 108.21621 2121 ft 205 kts 355°
2026-04-20 05:46 15.93413 108.21421 1837 ft 192 kts 356°
2026-04-20 05:46 15.94685 108.21236 1625 ft 176 kts 356°
2026-04-20 05:47 15.95851 108.21066 1381 ft 161 kts 356°
2026-04-20 05:47 15.96924 108.20911 1173 ft 152 kts 357°
2026-04-20 05:47 15.97986 108.20766 1017 ft 153 kts 357°
2026-04-20 05:47 15.99038 108.20614 821 ft 152 kts 355°
2026-04-20 05:48 16.00096 108.20458 618 ft 151 kts 356°
2026-04-20 05:48 16.01133 108.20311 438 ft 151 kts 355°
2026-04-20 05:48 16.02190 108.20151 243 ft 151 kts 355°
2026-04-20 05:48 16.03232 108.20005 72 ft 150 kts 354°
2026-04-20 05:49 16.04184 108.19865 61 ft 117 kts 353°
2026-04-20 05:49 16.04844 108.19774 58 ft 81 kts 352°
2026-04-20 05:49 16.05356 108.19697 57 ft 61 kts 352°
2026-04-20 05:49 16.05651 108.19655 55 ft 26 kts 353°
2026-04-20 05:50 16.05726 108.19719 54 ft 15 kts 84°
2026-04-20 05:50 16.05744 108.19830 53 ft 15 kts 78°
2026-04-20 05:50 16.05755 108.19946 51 ft 16 kts 90°
2026-04-20 05:50 16.05668 108.19995 50 ft 15 kts 171°
2026-04-20 05:51 16.05563 108.20011 50 ft 13 kts 151°
2026-04-20 05:51 16.05553 108.20076 49 ft 8 kts 83°
2026-04-20 05:51 16.05560 108.20132 49 ft 2 kts 82°
2026-04-20 05:51 16.05562 108.20142 49 ft 1 kts 83°
2026-04-20 05:52 16.05562 108.20145 49 ft 0 kts 83°